Regional Weather Roundup
Issued by NWS Midland/Odessa, TX

Skip options and go directly to product.
Home | Oldest Version | Next Version | Current Version | All | Text Only | Save Text | Print | Product List | Glossary On

Skip product version selection by date and time.   
569
ASUS44 KMAF 211301
RWRMAF
MIDLAND AREA WEATHER ROUNDUP
NATIONAL WEATHER SERVICE MIDLAND TX
700 AM CST SUN DEC 21 2014

...IN SOUTHWEST TEXAS AND SOUTHEAST NEW MEXICO...

CITY           SKY/WX    TMP DP  RH WIND       PRES   REMARKS
ALPINE         MOCLDY    41  27  56 SW16      30.10R WCI  33
ANDREWS        FOG       39  39 100 SW8       29.97F VSB 1   WCI  33
ARTESIA        CLEAR     32  23  69 SW10      29.98S WCI  24
BIG SPRING     CLOUDY    47  43  84 S12       30.01S
CARLSBAD       PTCLDY    31  24  75 NW5       29.97R WCI  26
DRYDEN           N/A     50  48  93 SE3       30.03R
FORT STOCKTON  PTCLDY    41  29  62 SW10      30.00S WCI  35
GUAD PASS      NOT AVBL
HOBBS          CLEAR     34  34 100 SW5       29.96F WCI  30
MARFA          MOCLDY    28  25  86 SW3       30.07S
MIDLAND AIRPK  CLOUDY    45  44  94 S8        29.99F FOG
MIDLAND INTL   FOG       42  41  96 SW9       29.98F VSB 1/4 WCI  37
ODESSA         CLOUDY    42  40  92 S9        29.98F FOG     WCI  37
PECOS          CLEAR     30  24  76 CALM      29.99S
PRESIDIO       FAIR      40  30  69 N8        30.06R WCI  34
SEMINOLE       CLOUDY    39  39 100 SW7       29.98R FOG     WCI  34
SNYDER         CLOUDY    46  43  90 S10       29.98S
WINK           FOG       35  32  88 CALM      29.99R VSB 1/4
$$
...OTHER STATIONS IN TEXAS...

CITY           SKY/WX    TMP DP  RH WIND       PRES   REMARKS
ABILENE        CLOUDY    48  44  86 S12       30.02R
AMARILLO       FOG       31  31 100 S7        29.86S VSB 1/4 WCI  24
AUSTIN         CLOUDY    50  46  86 SE6       30.11R
BROWNSVILLE    CLOUDY    59  56  89 NW8       30.06R
CORPUS CHRISTI CLOUDY    54  52  93 NE7       30.09R
DALLAS FTW     CLOUDY    47  43  86 S12       30.10S
DEL RIO        CLOUDY    50  46  86 E8        30.06S
EL PASO        CLOUDY    43  30  60 S9        30.05R WCI  38
HOUSTON INT    CLOUDY    48  44  86 NE7       30.14R
LUBBOCK        PTCLDY    37  36  96 SW13      29.91S FOG     WCI  29
SAN ANGELO     CLOUDY    49  45  86 S12       30.04R
SAN ANTONIO    CLOUDY    52  48  86 S8        30.10R
WACO           CLOUDY    47  45  93 SE6       30.11F
WICHITA FALLS  NOT AVBL
$$
...OTHER LOCATIONS IN NEW MEXICO...

CITY           SKY/WX    TMP DP  RH WIND       PRES   REMARKS
ALAMAGORDO     PTCLDY    28  23  80 NE6       30.06R WCI  22
ALBUQUERQUE    PTCLDY    30  24  78 SE3       30.05F
CANNON AFB     CLEAR     37  23  58 W17       29.88F WCI  27
CLOVIS         CLEAR     37  21  52 W13       29.88R WCI  29
HOLLOMAN AFB   MOCLDY    28  24  84 CALM      30.05R
ROSWELL        CLEAR     29  21  72 SW8       29.96S WCI  21
RUIDOSO        CLEAR     32  18  55 NW6       30.04S WCI  26
SANTA FE       CLEAR     32  22  66 NW10      29.99F WCI  24
TRUTH OR CONSE CLEAR     31  23  72 NW3       30.05R
TUCUMCARI      CLEAR     32  22  66 W10       29.85S WCI  24
$$

USA.gov is the U.S. government's official web portal to all federal, state and local government web resources and services.